Location: Boiro
(42.6475°N, 8.8834°W)
Time: 08:36:32
(UTC+01:00)

Vanguard 3 - Pass Details

Date: 07 December 2021
Orbit: 508 x 3260 km, 33.3° (Epoch: 24 January)

Event Time Altitude Azimuth Distance (km) Brightness Sun altitude
Rises 08:05:23 0° 271° (W) 7,222 - -8.5°
Exits shadow 08:06:57 - 270° (W) 6,905 11.3 -8.2°
Reaches altitude 10° 08:10:27 10° 268° (W) 6,186 11.1 -7.6°
Maximum altitude 08:28:52 55° 198° (SSW) 3,078 10.2 -4.6°
Drops below altitude 10° 08:41:17 10° 125° (SE) 4,323 12.9 -2.6°
Sets 08:44:09 0° 121° (ESE) 5,002 15.1 -2.1°
